Tracking 17265 objects as of 2-September-2015
HD Live streaming from Space Station

Track Soyuz TMA-18M
and Space Station

SL-14 R/B

Track SL-14 R/B now!
10-day predictions
SL-14 R/B is classified as:


NORAD ID: 16720
Int'l Code: 1986-034B
Perigee: 611.3 km
Apogee: 641.9 km
Inclination: 82.6 °
Period: 97.1 minutes
Semi major axis: 6997 km
RCS: 3.5564 m2 (large)
Launch date: May 15, 1986
Source: Commonwealth of Independent States (former USSR) (CIS)

Note: This is a ROCKET BODY
Your satellite tracking list
Your tracking list is empty





NASA's NSSDC Master Catalog

Two Line Element Set (TLE):
1 16720U 86034B   15244.79961877  .00000185  00000-0  19619-4 0  9991
2 16720  82.5552 131.5333 0021870  99.4328 328.4930 14.83119481582269

Source of the keplerian elements: AFSPC

N2YO: 269